Retour au catalogue

CZ-6A DEB

ActifSSO
NORAD 54526·DEBRIS·🇨🇳 China

Lancé Nov 11, 2022 depuis Taiyuan Satellite Launch Center

Loading…

Prochains Passages (prochaines 24 heures)

TLE

FraisSource: Space-Track

Époque: Sep 14, 2026, 10:53 UTC

1 54526U 22151KE  26257.45354501  .00000153  00000-0  10917-3 0  9992
2 54526  98.8473 254.6994 0055516 108.9100 251.8100 14.10164350197271

Suivez CZ-6A DEB en temps réel avec AllMySat

Download on the App Store